Year,Month,Day,Hour,Minute,Value (Times are PST for windgust in km/hr)
2010,11,14,00,01,3.20
2010,11,14,00,02,1.60
2010,11,14,00,03,1.60
2010,11,14,00,04,1.60
2010,11,14,00,05,3.20
2010,11,14,00,06,1.60
2010,11,14,00,10,3.20
2010,11,14,00,11,3.20
2010,11,14,00,13,3.20
2010,11,14,00,14,3.20
2010,11,14,00,15,1.60
2010,11,14,00,19,1.60
2010,11,14,00,20,1.60
2010,11,14,00,22,1.60
2010,11,14,00,23,1.60
2010,11,14,00,24,3.20
2010,11,14,00,25,4.80
2010,11,14,00,26,1.60
2010,11,14,00,35,1.60
2010,11,14,00,36,3.20
2010,11,14,00,37,1.60
2010,11,14,00,52,1.60
2010,11,14,00,53,1.60
2010,11,14,01,00,3.20
2010,11,14,01,01,3.20
2010,11,14,01,02,1.60
2010,11,14,01,03,1.60
2010,11,14,01,04,3.20
2010,11,14,01,05,3.20
2010,11,14,01,06,3.20
2010,11,14,01,07,3.20
2010,11,14,01,09,1.60
2010,11,14,01,25,3.20
2010,11,14,01,26,3.20
2010,11,14,01,27,3.20
2010,11,14,01,28,3.20
2010,11,14,01,29,3.20
2010,11,14,01,30,3.20
2010,11,14,01,31,3.20
2010,11,14,01,32,1.60
2010,11,14,01,53,1.60
2010,11,14,01,58,4.80
2010,11,14,01,59,4.80
2010,11,14,02,00,6.40
2010,11,14,02,01,6.40
2010,11,14,02,02,4.80
2010,11,14,02,03,4.80
2010,11,14,02,04,3.20
2010,11,14,02,05,4.80
2010,11,14,02,06,3.20
2010,11,14,02,07,1.60
2010,11,14,02,08,1.60
2010,11,14,02,09,1.60
2010,11,14,02,18,1.60
2010,11,14,02,25,3.20
2010,11,14,02,26,3.20
2010,11,14,02,27,4.80
2010,11,14,02,28,4.80
2010,11,14,02,29,4.80
2010,11,14,02,30,3.20
2010,11,14,02,41,1.60
2010,11,14,02,42,1.60
2010,11,14,02,52,1.60
2010,11,14,02,57,1.60
2010,11,14,02,58,3.20
2010,11,14,02,59,3.20
2010,11,14,03,00,1.60
2010,11,14,03,01,3.20
2010,11,14,03,02,3.20
2010,11,14,03,03,3.20
2010,11,14,03,04,3.20
2010,11,14,03,05,3.20
2010,11,14,03,06,3.20
2010,11,14,03,07,3.20
2010,11,14,03,08,3.20
2010,11,14,03,11,1.60
2010,11,14,03,50,3.20
2010,11,14,03,51,3.20
2010,11,14,03,53,3.20
2010,11,14,03,54,1.60
2010,11,14,03,55,1.60
2010,11,14,03,57,1.60
2010,11,14,03,59,3.20
2010,11,14,04,00,3.20
2010,11,14,04,01,3.20
2010,11,14,04,02,3.20
2010,11,14,04,03,4.80
2010,11,14,04,04,4.80
2010,11,14,04,05,4.80
2010,11,14,04,06,3.20
2010,11,14,04,07,4.80
2010,11,14,04,08,4.80
2010,11,14,04,09,4.80
2010,11,14,04,10,3.20
2010,11,14,04,11,3.20
2010,11,14,04,12,4.80
2010,11,14,04,13,4.80
2010,11,14,04,14,4.80
2010,11,14,04,15,3.20
2010,11,14,04,16,4.80
2010,11,14,04,17,4.80
2010,11,14,04,18,4.80
2010,11,14,04,19,6.40
2010,11,14,04,20,4.80
2010,11,14,04,21,6.40
2010,11,14,04,22,6.40
2010,11,14,04,23,6.40
2010,11,14,04,24,6.40
2010,11,14,04,25,9.60
2010,11,14,04,26,8.10
2010,11,14,04,27,8.10
2010,11,14,04,28,8.10
2010,11,14,04,29,4.80
2010,11,14,04,30,6.40
2010,11,14,04,31,8.10
2010,11,14,04,32,6.40
2010,11,14,04,33,6.40
2010,11,14,04,34,4.80
2010,11,14,04,35,3.20
2010,11,14,04,36,6.40
2010,11,14,04,37,6.40
2010,11,14,04,38,4.80
2010,11,14,04,39,4.80
2010,11,14,04,40,4.80
2010,11,14,04,41,6.40
2010,11,14,04,42,4.80
2010,11,14,04,43,4.80
2010,11,14,04,44,4.80
2010,11,14,04,45,3.20
2010,11,14,04,46,1.60
2010,11,14,04,47,1.60
2010,11,14,04,48,4.80
2010,11,14,04,49,3.20
2010,11,14,04,50,3.20
2010,11,14,04,51,3.20
2010,11,14,04,52,3.20
2010,11,14,04,53,8.10
2010,11,14,04,54,8.10
2010,11,14,04,55,8.10
2010,11,14,04,56,6.40
2010,11,14,04,57,8.10
2010,11,14,04,58,6.40
2010,11,14,04,59,6.40
2010,11,14,05,00,6.40
2010,11,14,05,01,4.80
2010,11,14,05,02,4.80
2010,11,14,05,03,4.80
2010,11,14,05,04,6.40
2010,11,14,05,05,6.40
2010,11,14,05,06,4.80
2010,11,14,05,07,3.20
2010,11,14,05,08,4.80
2010,11,14,05,09,3.20
2010,11,14,05,10,3.20
2010,11,14,05,11,1.60
2010,11,14,05,12,1.60
2010,11,14,05,13,3.20
2010,11,14,05,14,3.20
2010,11,14,05,15,1.60
2010,11,14,05,16,3.20
2010,11,14,05,17,1.60
2010,11,14,05,18,4.80
2010,11,14,05,19,4.80
2010,11,14,05,20,3.20
2010,11,14,05,21,3.20
2010,11,14,05,23,1.60
2010,11,14,05,24,1.60
2010,11,14,05,25,1.60
2010,11,14,05,26,3.20
2010,11,14,05,27,4.80
2010,11,14,05,28,6.40
2010,11,14,05,29,6.40
2010,11,14,05,30,4.80
2010,11,14,05,31,4.80
2010,11,14,05,32,3.20
2010,11,14,05,33,3.20
2010,11,14,05,34,3.20
2010,11,14,05,35,4.80
2010,11,14,05,36,4.80
2010,11,14,05,37,4.80
2010,11,14,05,38,6.40
2010,11,14,05,39,6.40
2010,11,14,05,40,4.80
2010,11,14,05,41,4.80
2010,11,14,05,42,3.20
2010,11,14,05,43,3.20
2010,11,14,05,44,3.20
2010,11,14,05,45,3.20
2010,11,14,05,46,1.60
2010,11,14,05,47,1.60
2010,11,14,05,48,4.80
2010,11,14,05,49,4.80
2010,11,14,05,50,4.80
2010,11,14,05,51,4.80
2010,11,14,05,52,3.20
2010,11,14,05,53,4.80
2010,11,14,05,54,3.20
2010,11,14,05,55,3.20
2010,11,14,05,56,1.60
2010,11,14,05,58,1.60
2010,11,14,06,00,1.60
2010,11,14,06,01,3.20
2010,11,14,06,02,3.20
2010,11,14,06,03,3.20
2010,11,14,06,04,3.20
2010,11,14,06,07,1.60
2010,11,14,06,08,1.60
2010,11,14,06,09,3.20
2010,11,14,06,10,3.20
2010,11,14,06,11,1.60
2010,11,14,06,12,3.20
2010,11,14,06,13,1.60
2010,11,14,06,14,1.60
2010,11,14,06,15,1.60
2010,11,14,06,17,3.20
2010,11,14,06,18,3.20
2010,11,14,06,19,1.60
2010,11,14,06,20,3.20
2010,11,14,06,21,3.20
2010,11,14,06,22,4.80
2010,11,14,06,23,4.80
2010,11,14,06,24,4.80
2010,11,14,06,25,4.80
2010,11,14,06,26,4.80
2010,11,14,06,27,4.80
2010,11,14,06,28,3.20
2010,11,14,06,29,3.20
2010,11,14,06,30,3.20
2010,11,14,06,31,4.80
2010,11,14,06,32,3.20
2010,11,14,06,33,6.40
2010,11,14,06,34,6.40
2010,11,14,06,35,4.80
2010,11,14,06,36,4.80
2010,11,14,06,37,1.60
2010,11,14,06,38,1.60
2010,11,14,06,39,1.60
2010,11,14,06,40,1.60
2010,11,14,06,41,3.20
2010,11,14,06,42,3.20
2010,11,14,06,43,3.20
2010,11,14,06,44,4.80
2010,11,14,06,45,6.40
2010,11,14,06,46,6.40
2010,11,14,06,47,6.40
2010,11,14,06,48,6.40
2010,11,14,06,49,6.40
2010,11,14,06,50,4.80
2010,11,14,06,51,6.40
2010,11,14,06,52,4.80
2010,11,14,06,53,4.80
2010,11,14,06,54,1.60
2010,11,14,06,55,4.80
2010,11,14,06,56,6.40
2010,11,14,06,57,4.80
2010,11,14,06,58,3.20
2010,11,14,06,59,3.20
2010,11,14,07,00,4.80
2010,11,14,07,03,4.80
2010,11,14,07,04,4.80
2010,11,14,07,05,1.60
2010,11,14,07,07,3.20
2010,11,14,07,08,3.20
2010,11,14,07,09,3.20
2010,11,14,07,10,3.20
2010,11,14,07,12,3.20
2010,11,14,07,13,3.20
2010,11,14,07,14,1.60
2010,11,14,07,15,1.60
2010,11,14,07,17,1.60
2010,11,14,07,18,1.60
2010,11,14,07,29,1.60
2010,11,14,07,31,1.60
2010,11,14,07,33,1.60
2010,11,14,07,34,1.60
2010,11,14,07,36,4.80
2010,11,14,07,37,3.20
2010,11,14,07,38,3.20
2010,11,14,07,39,3.20
2010,11,14,07,40,3.20
2010,11,14,07,41,3.20
2010,11,14,07,42,3.20
2010,11,14,07,43,3.20
2010,11,14,07,44,3.20
2010,11,14,07,45,4.80
2010,11,14,07,46,3.20
2010,11,14,07,47,3.20
2010,11,14,07,48,3.20
2010,11,14,07,49,4.80
2010,11,14,07,50,4.80
2010,11,14,07,51,3.20
2010,11,14,07,52,4.80
2010,11,14,07,53,3.20
2010,11,14,07,54,4.80
2010,11,14,07,55,6.40
2010,11,14,07,56,4.80
2010,11,14,07,57,6.40
2010,11,14,07,58,4.80
2010,11,14,07,59,6.40
2010,11,14,08,00,4.80
2010,11,14,08,01,1.60
2010,11,14,08,03,3.20
2010,11,14,08,04,3.20
2010,11,14,08,05,3.20
2010,11,14,08,06,3.20
2010,11,14,08,07,4.80
2010,11,14,08,08,3.20
2010,11,14,08,09,3.20
2010,11,14,08,10,3.20
2010,11,14,08,14,3.20
2010,11,14,08,15,1.60
2010,11,14,08,16,1.60
2010,11,14,08,18,1.60
2010,11,14,08,19,3.20
2010,11,14,08,20,3.20
2010,11,14,08,21,1.60
2010,11,14,08,25,1.60
2010,11,14,08,26,3.20
2010,11,14,08,27,3.20
2010,11,14,08,29,1.60
2010,11,14,08,30,3.20
2010,11,14,08,35,1.60
2010,11,14,08,36,3.20
2010,11,14,08,37,3.20
2010,11,14,08,38,3.20
2010,11,14,08,40,3.20
2010,11,14,08,41,3.20
2010,11,14,08,42,3.20
2010,11,14,08,45,1.60
2010,11,14,08,46,3.20
2010,11,14,08,47,3.20
2010,11,14,08,48,3.20
2010,11,14,08,52,3.20
2010,11,14,08,53,1.60
2010,11,14,08,54,4.80
2010,11,14,08,55,3.20
2010,11,14,08,56,3.20
2010,11,14,08,57,3.20
2010,11,14,09,00,3.20
2010,11,14,09,01,3.20
2010,11,14,09,02,4.80
2010,11,14,09,03,3.20
2010,11,14,09,13,1.60
2010,11,14,09,17,3.20
2010,11,14,09,18,3.20
2010,11,14,09,19,4.80
2010,11,14,09,20,3.20
2010,11,14,09,21,3.20
2010,11,14,09,22,3.20
2010,11,14,09,23,1.60
2010,11,14,09,32,1.60
2010,11,14,09,33,1.60
2010,11,14,09,36,1.60
2010,11,14,09,37,3.20
2010,11,14,09,38,1.60
2010,11,14,10,07,1.60
2010,11,14,10,08,1.60
2010,11,14,10,10,3.20
2010,11,14,10,11,3.20
2010,11,14,10,12,3.20
2010,11,14,10,13,3.20
2010,11,14,10,14,1.60
2010,11,14,10,16,3.20
2010,11,14,10,17,4.80
2010,11,14,10,18,4.80
2010,11,14,10,19,3.20
2010,11,14,10,20,1.60
2010,11,14,10,22,1.60
2010,11,14,10,24,1.60
2010,11,14,10,25,1.60
2010,11,14,10,26,3.20
2010,11,14,10,31,1.60
2010,11,14,10,32,1.60
2010,11,14,10,34,4.80
2010,11,14,10,35,3.20
2010,11,14,10,36,3.20
2010,11,14,10,37,3.20
2010,11,14,10,41,1.60
2010,11,14,10,42,1.60
2010,11,14,10,43,3.20
2010,11,14,10,44,3.20
2010,11,14,10,45,3.20
2010,11,14,10,46,3.20
2010,11,14,10,47,3.20
2010,11,14,10,48,3.20
2010,11,14,10,49,1.60
2010,11,14,10,52,3.20
2010,11,14,10,53,4.80
2010,11,14,10,54,3.20
2010,11,14,10,55,3.20
2010,11,14,10,56,6.40
2010,11,14,10,57,4.80
2010,11,14,10,58,3.20
2010,11,14,10,59,6.40
2010,11,14,11,00,4.80
2010,11,14,11,01,3.20
2010,11,14,11,04,3.20
2010,11,14,11,05,4.80
2010,11,14,11,06,6.40
2010,11,14,11,07,1.60
2010,11,14,11,09,1.60
2010,11,14,11,10,1.60
2010,11,14,11,13,3.20
2010,11,14,11,14,1.60
2010,11,14,11,15,1.60
2010,11,14,11,19,1.60
2010,11,14,11,21,1.60
2010,11,14,11,22,1.60
2010,11,14,11,24,1.60
2010,11,14,11,25,3.20
2010,11,14,11,26,3.20
2010,11,14,11,27,4.80
2010,11,14,11,28,3.20
2010,11,14,11,29,4.80
2010,11,14,11,30,6.40
2010,11,14,11,31,6.40
2010,11,14,11,32,6.40
2010,11,14,11,33,3.20
2010,11,14,11,34,4.80
2010,11,14,11,35,4.80
2010,11,14,11,36,4.80
2010,11,14,11,37,4.80
2010,11,14,11,40,1.60
2010,11,14,11,41,4.80
2010,11,14,11,42,1.60
2010,11,14,11,43,1.60
2010,11,14,11,44,1.60
2010,11,14,11,46,1.60
2010,11,14,11,47,3.20
2010,11,14,11,50,1.60
2010,11,14,12,06,1.60
2010,11,14,12,17,1.60
2010,11,14,12,18,1.60
2010,11,14,12,19,3.20
2010,11,14,12,20,1.60
2010,11,14,12,21,1.60
2010,11,14,12,22,3.20
2010,11,14,12,23,1.60
2010,11,14,12,24,3.20
2010,11,14,12,25,3.20
2010,11,14,12,26,3.20
2010,11,14,12,27,3.20
2010,11,14,12,28,4.80
2010,11,14,12,29,4.80
2010,11,14,12,30,4.80
2010,11,14,12,31,3.20
2010,11,14,12,32,4.80
2010,11,14,12,33,4.80
2010,11,14,12,34,4.80
2010,11,14,12,35,3.20
2010,11,14,12,36,6.40
2010,11,14,12,37,4.80
2010,11,14,12,38,4.80
2010,11,14,12,39,3.20
2010,11,14,12,40,4.80
2010,11,14,12,41,3.20
2010,11,14,12,42,3.20
2010,11,14,12,43,4.80
2010,11,14,12,44,4.80
2010,11,14,12,45,6.40
2010,11,14,12,46,3.20
2010,11,14,12,47,4.80
2010,11,14,12,48,6.40
2010,11,14,12,49,4.80
2010,11,14,12,50,4.80
2010,11,14,12,51,4.80
2010,11,14,12,52,4.80
2010,11,14,12,53,3.20
2010,11,14,12,54,3.20
2010,11,14,12,55,4.80
2010,11,14,12,56,4.80
2010,11,14,12,57,4.80
2010,11,14,12,58,6.40
2010,11,14,12,59,6.40
2010,11,14,13,00,6.40
2010,11,14,13,01,6.40
2010,11,14,13,02,4.80
2010,11,14,13,03,4.80
2010,11,14,13,04,6.40
2010,11,14,13,05,4.80
2010,11,14,13,06,4.80
2010,11,14,13,07,3.20
2010,11,14,13,08,4.80
2010,11,14,13,09,4.80
2010,11,14,13,10,6.40
2010,11,14,13,11,4.80
2010,11,14,13,12,9.60
2010,11,14,13,13,9.60
2010,11,14,13,14,9.60
2010,11,14,13,15,6.40
2010,11,14,13,16,6.40
2010,11,14,13,17,6.40
2010,11,14,13,18,6.40
2010,11,14,13,19,8.10
2010,11,14,13,20,8.10
2010,11,14,13,21,11.30
2010,11,14,13,22,16.10
2010,11,14,13,23,11.30
2010,11,14,13,24,11.30
2010,11,14,13,25,14.50
2010,11,14,13,26,8.10
2010,11,14,13,27,8.10
2010,11,14,13,28,9.60
2010,11,14,13,29,3.20
2010,11,14,13,30,8.10
2010,11,14,13,31,4.80
2010,11,14,13,32,8.10
2010,11,14,13,33,8.10
2010,11,14,13,34,8.10
2010,11,14,13,35,8.10
2010,11,14,13,36,6.40
2010,11,14,13,37,14.50
2010,11,14,13,38,12.90
2010,11,14,13,39,11.30
2010,11,14,13,40,8.10
2010,11,14,13,41,8.10
2010,11,14,13,42,6.40
2010,11,14,13,43,9.60
2010,11,14,13,44,9.60
2010,11,14,13,45,6.40
2010,11,14,13,46,8.10
2010,11,14,13,47,8.10
2010,11,14,13,48,6.40
2010,11,14,13,49,11.30
2010,11,14,13,50,8.10
2010,11,14,13,51,6.40
2010,11,14,13,52,14.50
2010,11,14,13,53,9.60
2010,11,14,13,54,8.10
2010,11,14,13,55,6.40
2010,11,14,13,56,4.80
2010,11,14,13,57,3.20
2010,11,14,13,58,4.80
2010,11,14,13,59,8.10
2010,11,14,14,00,6.40
2010,11,14,14,01,6.40
2010,11,14,14,02,4.80
2010,11,14,14,03,6.40
2010,11,14,14,04,4.80
2010,11,14,14,08,4.80
2010,11,14,14,09,8.10
2010,11,14,14,10,6.40
2010,11,14,14,11,4.80
2010,11,14,14,12,4.80
2010,11,14,14,13,3.20
2010,11,14,14,14,3.20
2010,11,14,14,15,3.20
2010,11,14,14,16,4.80
2010,11,14,14,17,1.60
2010,11,14,14,18,9.60
2010,11,14,14,19,14.50
2010,11,14,14,20,11.30
2010,11,14,14,21,11.30
2010,11,14,14,22,6.40
2010,11,14,14,23,9.60
2010,11,14,14,24,8.10
2010,11,14,14,25,9.60
2010,11,14,14,26,8.10
2010,11,14,14,27,9.60
2010,11,14,14,28,9.60
2010,11,14,14,29,8.10
2010,11,14,14,30,14.50
2010,11,14,14,31,11.30
2010,11,14,14,32,12.90
2010,11,14,14,33,11.30
2010,11,14,14,34,16.10
2010,11,14,14,35,20.90
2010,11,14,14,36,19.30
2010,11,14,14,37,20.90
2010,11,14,14,38,17.70
2010,11,14,14,39,27.40
2010,11,14,14,40,24.20
2010,11,14,14,41,11.30
2010,11,14,14,42,16.10
2010,11,14,14,43,11.30
2010,11,14,14,44,22.50
2010,11,14,14,45,24.20
2010,11,14,14,46,27.40
2010,11,14,14,47,24.20
2010,11,14,14,48,24.20
2010,11,14,14,49,27.40
2010,11,14,14,50,24.20
2010,11,14,14,51,20.90
2010,11,14,14,52,17.70
2010,11,14,14,53,22.50
2010,11,14,14,54,17.70
2010,11,14,14,55,27.40
2010,11,14,14,56,20.90
2010,11,14,14,57,17.70
2010,11,14,14,58,16.10
2010,11,14,14,59,20.90
2010,11,14,15,00,24.20
2010,11,14,15,01,14.50
2010,11,14,15,02,16.10
2010,11,14,15,03,29.00
2010,11,14,15,04,17.70
2010,11,14,15,05,16.10
2010,11,14,15,06,20.90
2010,11,14,15,07,25.70
2010,11,14,15,08,22.50
2010,11,14,15,09,27.40
2010,11,14,15,10,17.70
2010,11,14,15,11,22.50
2010,11,14,15,12,27.40
2010,11,14,15,13,19.30
2010,11,14,15,14,25.70
2010,11,14,15,15,22.50
2010,11,14,15,16,25.70
2010,11,14,15,17,24.20
2010,11,14,15,18,29.00
2010,11,14,15,19,24.20
2010,11,14,15,20,22.50
2010,11,14,15,21,22.50
2010,11,14,15,22,19.30
2010,11,14,15,23,20.90
2010,11,14,15,24,17.70
2010,11,14,15,25,17.70
2010,11,14,15,26,14.50
2010,11,14,15,27,19.30
2010,11,14,15,28,24.20
2010,11,14,15,29,20.90
2010,11,14,15,30,17.70
2010,11,14,15,31,20.90
2010,11,14,15,32,17.70
2010,11,14,15,33,19.30
2010,11,14,15,34,16.10
2010,11,14,15,35,24.20
2010,11,14,15,36,19.30
2010,11,14,15,37,25.70
2010,11,14,15,38,20.90
2010,11,14,15,39,17.70
2010,11,14,15,40,16.10
2010,11,14,15,41,22.50
2010,11,14,15,42,16.10
2010,11,14,15,43,25.70
2010,11,14,15,44,17.70
2010,11,14,15,45,22.50
2010,11,14,15,46,17.70
2010,11,14,15,47,19.30
2010,11,14,15,48,19.30
2010,11,14,15,49,16.10
2010,11,14,15,50,17.70
2010,11,14,15,51,16.10
2010,11,14,15,52,16.10
2010,11,14,15,53,19.30
2010,11,14,15,54,22.50
2010,11,14,15,55,17.70
2010,11,14,15,56,16.10
2010,11,14,15,57,16.10
2010,11,14,15,58,17.70
2010,11,14,15,59,14.50
2010,11,14,16,00,16.10
2010,11,14,16,01,17.70
2010,11,14,16,02,16.10
2010,11,14,16,03,17.70
2010,11,14,16,04,9.60
2010,11,14,16,05,17.70
2010,11,14,16,06,11.30
2010,11,14,16,07,8.10
2010,11,14,16,08,12.90
2010,11,14,16,09,12.90
2010,11,14,16,10,11.30
2010,11,14,16,11,11.30
2010,11,14,16,12,11.30
2010,11,14,16,13,8.10
2010,11,14,16,14,6.40
2010,11,14,16,15,4.80
2010,11,14,16,16,6.40
2010,11,14,16,17,6.40
2010,11,14,16,18,8.10
2010,11,14,16,19,11.30
2010,11,14,16,20,11.30
2010,11,14,16,21,14.50
2010,11,14,16,22,14.50
2010,11,14,16,23,8.10
2010,11,14,16,24,11.30
2010,11,14,16,25,8.10
2010,11,14,16,26,11.30
2010,11,14,16,27,11.30
2010,11,14,16,28,8.10
2010,11,14,16,29,6.40
2010,11,14,16,30,8.10
2010,11,14,16,31,11.30
2010,11,14,16,32,11.30
2010,11,14,16,33,8.10
2010,11,14,16,34,8.10
2010,11,14,16,35,6.40
2010,11,14,16,36,9.60
2010,11,14,16,37,8.10
2010,11,14,16,38,9.60
2010,11,14,16,39,8.10
2010,11,14,16,40,9.60
2010,11,14,16,41,11.30
2010,11,14,16,42,11.30
2010,11,14,16,43,11.30
2010,11,14,16,44,11.30
2010,11,14,16,45,11.30
2010,11,14,16,46,16.10
2010,11,14,16,47,16.10
2010,11,14,16,48,12.90
2010,11,14,16,49,8.10
2010,11,14,16,50,11.30
2010,11,14,16,51,11.30
2010,11,14,16,52,16.10
2010,11,14,16,53,16.10
2010,11,14,16,54,11.30
2010,11,14,16,55,11.30
2010,11,14,16,56,8.10
2010,11,14,16,57,12.90
2010,11,14,16,58,11.30
2010,11,14,16,59,16.10
2010,11,14,17,00,9.60
2010,11,14,17,01,16.10
2010,11,14,17,02,17.70
2010,11,14,17,03,11.30
2010,11,14,17,04,16.10
2010,11,14,17,05,19.30
2010,11,14,17,06,22.50
2010,11,14,17,07,22.50
2010,11,14,17,08,19.30
2010,11,14,17,09,22.50
2010,11,14,17,10,19.30
2010,11,14,17,11,14.50
2010,11,14,17,12,14.50
2010,11,14,17,13,16.10
2010,11,14,17,14,16.10
2010,11,14,17,15,11.30
2010,11,14,17,16,14.50
2010,11,14,17,17,17.70
2010,11,14,17,18,16.10
2010,11,14,17,19,12.90
2010,11,14,17,20,17.70
2010,11,14,17,21,12.90
2010,11,14,17,22,8.10
2010,11,14,17,23,11.30
2010,11,14,17,24,6.40
2010,11,14,17,25,11.30
2010,11,14,17,26,11.30
2010,11,14,17,27,8.10
2010,11,14,17,28,8.10
2010,11,14,17,29,9.60
2010,11,14,17,30,8.10
2010,11,14,17,31,4.80
2010,11,14,17,32,3.20
2010,11,14,17,33,4.80
2010,11,14,17,34,6.40
2010,11,14,17,35,3.20
2010,11,14,17,36,4.80
2010,11,14,17,37,4.80
2010,11,14,17,38,6.40
2010,11,14,17,39,6.40
2010,11,14,17,40,6.40
2010,11,14,17,41,4.80
2010,11,14,17,42,3.20
2010,11,14,17,43,6.40
2010,11,14,17,44,6.40
2010,11,14,17,45,6.40
2010,11,14,17,46,8.10
2010,11,14,17,47,8.10
2010,11,14,17,48,8.10
2010,11,14,17,49,8.10
2010,11,14,17,50,8.10
2010,11,14,17,51,6.40
2010,11,14,17,52,11.30
2010,11,14,17,53,9.60
2010,11,14,17,54,8.10
2010,11,14,17,55,8.10
2010,11,14,17,56,9.60
2010,11,14,17,57,8.10
2010,11,14,17,58,9.60
2010,11,14,17,59,6.40
2010,11,14,18,00,6.40
2010,11,14,18,01,6.40
2010,11,14,18,02,6.40
2010,11,14,18,03,6.40
2010,11,14,18,04,8.10
2010,11,14,18,05,6.40
2010,11,14,18,06,6.40
2010,11,14,18,07,6.40
2010,11,14,18,08,4.80
2010,11,14,18,09,4.80
2010,11,14,18,10,8.10
2010,11,14,18,11,11.30
2010,11,14,18,12,11.30
2010,11,14,18,13,8.10
2010,11,14,18,14,8.10
2010,11,14,18,15,8.10
2010,11,14,18,16,6.40
2010,11,14,18,17,12.90
2010,11,14,18,18,14.50
2010,11,14,18,19,14.50
2010,11,14,18,20,11.30
2010,11,14,18,21,9.60
2010,11,14,18,22,9.60
2010,11,14,18,23,11.30
2010,11,14,18,24,6.40
2010,11,14,18,25,6.40
2010,11,14,18,26,4.80
2010,11,14,18,27,6.40
2010,11,14,18,28,8.10
2010,11,14,18,29,8.10
2010,11,14,18,30,8.10
2010,11,14,18,31,6.40
2010,11,14,18,32,4.80
2010,11,14,18,33,4.80
2010,11,14,18,34,1.60
2010,11,14,18,35,1.60
2010,11,14,18,36,1.60
2010,11,14,18,37,3.20
2010,11,14,18,38,3.20
2010,11,14,18,39,3.20
2010,11,14,18,40,3.20
2010,11,14,18,41,6.40
2010,11,14,18,42,4.80
2010,11,14,18,43,8.10
2010,11,14,18,44,4.80
2010,11,14,18,45,4.80
2010,11,14,18,46,6.40
2010,11,14,18,47,4.80
2010,11,14,18,48,3.20
2010,11,14,18,49,4.80
2010,11,14,18,50,3.20
2010,11,14,18,51,8.10
2010,11,14,18,52,8.10
2010,11,14,18,53,8.10
2010,11,14,18,54,9.60
2010,11,14,18,55,8.10
2010,11,14,18,56,8.10
2010,11,14,18,57,9.60
2010,11,14,18,58,6.40
2010,11,14,18,59,8.10
2010,11,14,19,00,9.60
2010,11,14,19,01,6.40
2010,11,14,19,02,6.40
2010,11,14,19,03,6.40
2010,11,14,19,04,6.40
2010,11,14,19,05,8.10
2010,11,14,19,06,8.10
2010,11,14,19,07,6.40
2010,11,14,19,08,6.40
2010,11,14,19,09,6.40
2010,11,14,19,10,4.80
2010,11,14,19,11,4.80
2010,11,14,19,12,4.80
2010,11,14,19,13,3.20
2010,11,14,19,14,3.20
2010,11,14,19,15,3.20
2010,11,14,19,16,3.20
2010,11,14,19,17,4.80
2010,11,14,19,18,3.20
2010,11,14,19,19,3.20
2010,11,14,19,20,3.20
2010,11,14,19,21,4.80
2010,11,14,19,22,3.20
2010,11,14,19,23,1.60
2010,11,14,19,24,1.60
2010,11,14,19,27,3.20
2010,11,14,19,28,4.80
2010,11,14,19,29,1.60
2010,11,14,19,30,1.60
2010,11,14,19,33,1.60
2010,11,14,19,34,1.60
2010,11,14,19,35,4.80
2010,11,14,19,36,4.80
2010,11,14,19,37,1.60
2010,11,14,19,38,3.20
2010,11,14,19,39,4.80
2010,11,14,19,40,6.40
2010,11,14,19,41,4.80
2010,11,14,19,42,1.60
2010,11,14,19,43,3.20
2010,11,14,19,44,1.60
2010,11,14,19,46,3.20
2010,11,14,19,47,3.20
2010,11,14,19,48,4.80
2010,11,14,19,49,4.80
2010,11,14,19,50,3.20
2010,11,14,19,51,3.20
2010,11,14,19,52,3.20
2010,11,14,19,53,3.20
2010,11,14,19,54,3.20
2010,11,14,19,55,3.20
2010,11,14,19,56,3.20
2010,11,14,19,57,3.20
2010,11,14,19,58,3.20
2010,11,14,19,59,3.20
2010,11,14,20,00,1.60
2010,11,14,20,01,1.60
2010,11,14,20,02,4.80
2010,11,14,20,03,3.20
2010,11,14,20,05,1.60
2010,11,14,20,06,3.20
2010,11,14,20,07,1.60
2010,11,14,20,08,1.60
2010,11,14,20,09,1.60
2010,11,14,20,12,1.60
2010,11,14,20,13,1.60
2010,11,14,20,16,1.60
2010,11,14,20,17,1.60
2010,11,14,20,18,4.80
2010,11,14,20,19,3.20
2010,11,14,20,20,4.80
2010,11,14,20,21,6.40
2010,11,14,20,22,4.80
2010,11,14,20,23,4.80
2010,11,14,20,24,4.80
2010,11,14,20,25,4.80
2010,11,14,20,26,8.10
2010,11,14,20,27,6.40
2010,11,14,20,28,6.40
2010,11,14,20,29,6.40
2010,11,14,20,30,6.40
2010,11,14,20,31,8.10
2010,11,14,20,32,3.20
2010,11,14,20,33,11.30
2010,11,14,20,34,6.40
2010,11,14,20,35,9.60
2010,11,14,20,36,6.40
2010,11,14,20,37,6.40
2010,11,14,20,38,8.10
2010,11,14,20,39,9.60
2010,11,14,20,40,11.30
2010,11,14,20,41,9.60
2010,11,14,20,42,8.10
2010,11,14,20,43,9.60
2010,11,14,20,44,9.60
2010,11,14,20,45,9.60
2010,11,14,20,46,9.60
2010,11,14,20,47,11.30
2010,11,14,20,48,16.10
2010,11,14,20,49,17.70
2010,11,14,20,50,16.10
2010,11,14,20,51,8.10
2010,11,14,20,52,14.50
2010,11,14,20,53,16.10
2010,11,14,20,54,14.50
2010,11,14,20,55,19.30
2010,11,14,20,56,19.30
2010,11,14,20,57,22.50
2010,11,14,20,58,20.90
2010,11,14,20,59,25.70
2010,11,14,21,00,17.70
2010,11,14,21,01,19.30
2010,11,14,21,02,16.10
2010,11,14,21,03,8.10
2010,11,14,21,04,19.30
2010,11,14,21,05,22.50
2010,11,14,21,06,19.30
2010,11,14,21,07,25.70
2010,11,14,21,08,20.90
2010,11,14,21,09,27.40
2010,11,14,21,10,19.30
2010,11,14,21,11,17.70
2010,11,14,21,12,17.70
2010,11,14,21,13,24.20
2010,11,14,21,14,16.10
2010,11,14,21,15,19.30
2010,11,14,21,16,20.90
2010,11,14,21,17,20.90
2010,11,14,21,18,20.90
2010,11,14,21,19,16.10
2010,11,14,21,20,19.30
2010,11,14,21,21,14.50
2010,11,14,21,22,14.50
2010,11,14,21,23,20.90
2010,11,14,21,24,16.10
2010,11,14,21,25,22.50
2010,11,14,21,26,19.30
2010,11,14,21,27,20.90
2010,11,14,21,28,19.30
2010,11,14,21,29,17.70
2010,11,14,21,30,19.30
2010,11,14,21,31,14.50
2010,11,14,21,32,17.70
2010,11,14,21,33,19.30
2010,11,14,21,34,9.60
2010,11,14,21,35,14.50
2010,11,14,21,36,11.30
2010,11,14,21,37,24.20
2010,11,14,21,38,19.30
2010,11,14,21,39,20.90
2010,11,14,21,40,20.90
2010,11,14,21,41,22.50
2010,11,14,21,42,20.90
2010,11,14,21,43,27.40
2010,11,14,21,44,25.70
2010,11,14,21,45,22.50
2010,11,14,21,46,19.30
2010,11,14,21,47,25.70
2010,11,14,21,48,29.00
2010,11,14,21,49,24.20
2010,11,14,21,50,25.70
2010,11,14,21,51,33.80
2010,11,14,21,52,30.60
2010,11,14,21,53,27.40
2010,11,14,21,54,24.20
2010,11,14,21,55,25.70
2010,11,14,21,56,29.00
2010,11,14,21,57,27.40
2010,11,14,21,58,25.70
2010,11,14,21,59,16.10
2010,11,14,22,00,20.90
2010,11,14,22,01,27.40
2010,11,14,22,02,24.20
2010,11,14,22,03,24.20
2010,11,14,22,04,25.70
2010,11,14,22,05,29.00
2010,11,14,22,06,24.20
2010,11,14,22,07,24.20
2010,11,14,22,08,20.90
2010,11,14,22,09,22.50
2010,11,14,22,10,22.50
2010,11,14,22,11,20.90
2010,11,14,22,12,22.50
2010,11,14,22,13,24.20
2010,11,14,22,14,25.70
2010,11,14,22,15,30.60
2010,11,14,22,16,30.60
2010,11,14,22,17,22.50
2010,11,14,22,18,27.40
2010,11,14,22,19,24.20
2010,11,14,22,20,20.90
2010,11,14,22,21,29.00
2010,11,14,22,22,11.30
2010,11,14,22,23,22.50
2010,11,14,22,24,22.50
2010,11,14,22,25,27.40
2010,11,14,22,26,27.40
2010,11,14,22,27,25.70
2010,11,14,22,28,29.00
2010,11,14,22,29,20.90
2010,11,14,22,30,19.30
2010,11,14,22,31,14.50
2010,11,14,22,32,14.50
2010,11,14,22,33,24.20
2010,11,14,22,34,24.20
2010,11,14,22,35,24.20
2010,11,14,22,36,20.90
2010,11,14,22,37,19.30
2010,11,14,22,38,22.50
2010,11,14,22,39,24.20
2010,11,14,22,40,20.90
2010,11,14,22,41,22.50
2010,11,14,22,42,24.20
2010,11,14,22,43,25.70
2010,11,14,22,44,22.50
2010,11,14,22,45,24.20
2010,11,14,22,46,19.30
2010,11,14,22,47,22.50
2010,11,14,22,48,16.10
2010,11,14,22,49,19.30
2010,11,14,22,50,19.30
2010,11,14,22,51,19.30
2010,11,14,22,52,17.70
2010,11,14,22,53,11.30
2010,11,14,22,54,20.90
2010,11,14,22,55,17.70
2010,11,14,22,56,17.70
2010,11,14,22,57,17.70
2010,11,14,22,58,16.10
2010,11,14,22,59,20.90
2010,11,14,23,00,9.60
2010,11,14,23,01,17.70
2010,11,14,23,02,19.30
2010,11,14,23,03,20.90
2010,11,14,23,04,19.30
2010,11,14,23,05,19.30
2010,11,14,23,06,22.50
2010,11,14,23,07,27.40
2010,11,14,23,08,19.30
2010,11,14,23,09,27.40
2010,11,14,23,10,19.30
2010,11,14,23,11,24.20